Weather History for Newport, RI

Change the Weather History Date:

Friday, November 18, 2011

  Actual Average Record
Temperature  
Mean Temperature 38 °F -  
Max Temperature 44 °F 52 °F 65 °F (1975)
Min Temperature 33 °F 37 °F 22 °F (1959)
Degree Days  
Heating Degree Days 26    
Moisture  
Dew Point 24 °F    
Average Humidity 57    
Maximum Humidity 78    
Minimum Humidity 43    
Precipitation  
Precipitation 0.00 in - - ()
Sea Level Pressure  
Sea Level Pressure 30.27 in    
Wind  
Wind Speed 9 mph (WNW)    
Max Wind Speed 16 mph    
Max Gust Speed 25 mph    
Visibility 10 miles    
Events      
Averages and records for this station are not official NWS values.
T = Trace of Precipitation, MM = Missing Value Source: NWS Daily Summary

Daily Weather History Graph

Daily Weather History Graph

Search for Another Location

Airport:

Trip Planner

Search our weather history database for the weather conditions in past years. The results will help you decide how hot, cold, wet, or windy it might be!

Date:

Astronomy

Nov. 18, 2011 Rise Set
Actual Time 6:37 AM EST 4:22 PM EST
Civil Twilight 6:07 AM EST 4:52 PM EST
Nautical Twilight 5:33 AM EST 5:26 PM EST
Astronomical Twilight 5:00 AM EST 5:59 PM EST
Moon 11:50 PM EST (11/18) 12:12 PM EST (11/18)
Length of Visible Light 10h 45m
Length of Day
9h 45m
Waning Gibbous, 49% of the Moon is Illuminated
Nov 18
Waning Gibbous
Nov 25
New
Dec 2
First Quarter
Dec 10
Full
Dec 17
Last Quarter

Hourly Weather History & Observations

Time (EST) Temp. Windchill Dew Point Humidity Pressure Visibility Wind Dir Wind Speed Gust Speed Precip Events Conditions
12:53 AM 37.9 °F 30.5 °F 25.0 °F 60% 29.96 in 10.0 mi WNW 11.5 mph 20.7 mph N/A   Clear
1:53 AM 37.0 °F 28.9 °F 25.0 °F 62% 30.00 in 10.0 mi WNW 12.7 mph 20.7 mph N/A   Clear
2:53 AM 37.0 °F 30.4 °F 25.0 °F 62% 30.04 in 10.0 mi WNW 9.2 mph 18.4 mph N/A   Clear
4:53 AM 36.0 °F 29.0 °F 24.1 °F 62% 30.11 in 10.0 mi West 9.2 mph 19.6 mph N/A   Clear
5:53 AM 35.1 °F 29.3 °F 24.1 °F 64% 30.14 in 10.0 mi West 6.9 mph - N/A   Clear
7:53 AM 36.0 °F 28.0 °F 24.1 °F 62% 30.22 in 10.0 mi WNW 11.5 mph 20.7 mph N/A   Clear
8:53 AM 37.9 °F 30.9 °F 24.1 °F 57% 30.25 in 10.0 mi WNW 10.4 mph 20.7 mph N/A   Clear
9:53 AM 39.9 °F 31.4 °F 24.1 °F 53% 30.26 in 10.0 mi WNW 16.1 mph 25.3 mph N/A   Clear
10:53 AM 42.1 °F 35.2 °F 25.0 °F 51% 30.27 in 10.0 mi NW 12.7 mph 24.2 mph N/A   Clear
11:53 AM 43.0 °F 36.8 °F 25.0 °F 49% 30.27 in 10.0 mi WNW 11.5 mph 18.4 mph N/A   Clear
12:53 PM 44.1 °F 39.0 °F 24.1 °F 45% 30.29 in 10.0 mi WNW 9.2 mph 20.7 mph N/A   Clear
1:53 PM 44.1 °F 37.7 °F 23.0 °F 43% 30.30 in 10.0 mi NW 12.7 mph 19.6 mph N/A   Clear
2:53 PM 44.1 °F 38.1 °F 23.0 °F 43% 30.33 in 10.0 mi West 11.5 mph 20.7 mph N/A   Clear
3:53 PM 42.1 °F 37.1 °F 23.0 °F 47% 30.34 in 10.0 mi NW 8.1 mph - N/A   Clear
4:53 PM 41.0 °F 38.0 °F 23.0 °F 49% 30.35 in 10.0 mi West 4.6 mph - N/A   Clear
5:53 PM 39.9 °F - 23.0 °F 51% 30.38 in 10.0 mi Calm Calm - N/A   Clear
6:53 PM 35.1 °F - 25.0 °F 67% 30.40 in 10.0 mi Calm Calm - N/A   Clear
7:53 PM 35.1 °F - 26.1 °F 70% 30.41 in 10.0 mi Calm Calm - N/A   Clear
8:53 PM 34.0 °F - 26.1 °F 73% 30.41 in 10.0 mi Calm Calm - N/A   Clear
9:53 PM 33.1 °F - 27.0 °F 78% 30.42 in 10.0 mi Calm Calm - N/A   Clear
10:53 PM 39.9 °F - 24.1 °F 53% 30.42 in 10.0 mi Calm Calm - N/A   Clear